Preview of NWS' New Version of Forecast
This preview is not operational and should not be used for support decisions.
Latest weather observations around

Los Angeles, Los Angeles International Airport (KLAX)

Using International System of Units (Switch to English Units)
Date/ Time (PDT) Wind (kph) Vis. (km) Weather Sky Cond. Temp (°C) Rel. Humidity Wind Chill (°C) Heat Index (°C) Pressure Precip. (cm)
Air Dwpt 6 hour Altimeter (hPa) Sea level (hPa) 1 hr 3 hr 6 hr
Max Min
Aug 20 14:53 W 28 16.09 Clear CLR 24 16     58%   24 1012.9 1012.5      
Aug 20 13:53 W 26 16.09 Clear CLR 25 16     58%   25 1013.2 1013.1      
Aug 20 12:53 W 21 16.09 Mostly Clear FEW020 24 17     64%   25 1013.6 1013.5      
Aug 20 11:53 W 18 16.09 Mostly Clear FEW025 25 17     62%   25 1014.2 1014      
Aug 20 10:53 WSW 15 16.09 Clear CLR 25 17     62%   25 1014.6 1014.3      
Aug 20 09:53 5 16.09 Clear CLR 24 17     62%   25 1014.2 1014.1      
Aug 20 08:53 5 16.09 Mostly Clear FEW010 23 17     68%   23 1014.2 1013.9      
Aug 20 07:53 Calm 16.09 Mostly Clear FEW009 FEW250 21 17     78%     1014.2 1014      
Aug 20 06:53 ESE 5 16.09 Partly Cloudy FEW009 FEW012 SCT250 19 17     87%     1013.9 1013.8      
Aug 20 06:39 Calm 16.09 Partly Cloudy FEW008 FEW011 SCT220 19 17     84%     1013.9        
Aug 20 05:53 S 5 16.09 Mostly Cloudy FEW008 BKN011 BKN220 19 17     84%     1013.9 1013.6      
Aug 20 05:51 Calm 16.09 Mostly Cloudy FEW008 BKN011 BKN220 19 17     88%     1013.9        
Aug 20 04:53 Calm 16.09 Mostly Clear FEW011 19 16     81%     1013.6 1013.3      
Aug 20 03:53 SW 5 16.09 Mostly Clear FEW014 19 16     81%     1013.2 1012.9      
Aug 20 02:53 Calm 16.09 Mostly Clear FEW014 19 16     81%     1012.9 1012.6      
Aug 20 01:53 Calm 16.09 Mostly Clear FEW010 FEW015 20 17     81%     1012.9 1012.6      
Aug 20 00:53 SE 9 16.09 Mostly Clear FEW010 FEW015 20 16     78%     1012.9 1012.6      
Aug 19 23:53 S 8 16.09 Clear CLR 21 16     75%     1012.9 1012.7      
Aug 19 22:53 WSW 8 16.09 Clear   21 16     75%     1012.9 1012.6      
Aug 19 21:53 SW 11 16.09 Clear CLR 20 16     78%     1012.9 1012.7      
Aug 19 20:53 WSW 15 16.09 Clear CLR 20 16     78%     1012.5 1012.3      
Aug 19 19:53 W 21 16.09 Mostly Clear FEW010 20 16     78%     1012.5 1012.3      
Aug 19 18:53 W 24 16.09 Mostly Clear FEW012 21 16     75%     1012.5 1012.3      
Aug 19 17:53 WSW 22 16.09 Mostly Clear FEW012 22 17     73%   22 1012.5 1012.3      
Aug 19 16:53 W 26 16.09 Mostly Clear FEW013 22 16     68%   22 1012.9 1012.7      
Aug 19 15:53 W 24 16.09 Mostly Clear FEW010 23 16     64%   23 1013.2 1013.1      
Aug 19 14:53 W 22 16.09 Mostly Clear FEW010 24 16     60%   24 1013.9 1013.7      
Aug 19 13:53 WSW 18 12.87 Mostly Clear FEW027 24 16     60%   24 1014.6 1014.2      
Aug 19 12:53 WSW 17 12.87 Mostly Clear FEW027 24 16     60%   24 1014.6 1014.4      
Aug 19 11:53 WSW 15 12.87 Mostly Clear FEW025 24 16     62%   24 1014.9 1014.8      
Aug 19 10:53 5 12.87 Partly Cloudy SCT023 24 16     62%   24 1015.2 1015      
Aug 19 10:48 WSW 9 12.87 Partly Cloudy SCT023 23 16     65%   23 1015.2        
Aug 19 09:53 5 11.27 Cloudy OVC019 22 16     68%   22 1015.2 1014.9      
Aug 19 08:53 SE 9 11.27 Cloudy OVC017 21 16     73%     1014.9 1014.7      
Aug 19 08:21 8 11.27 Cloudy OVC016 21 16     73%     1014.9        
Aug 19 07:53 ENE 5 11.27 Cloudy OVC014 20 16     76%     1014.9 1014.6      
Aug 19 06:53 Calm 11.27 Cloudy OVC013 19 16     79%     1014.6 1014.3      
Aug 19 05:53 Calm 14.48 Cloudy OVC012 19 16     79%     1014.2 1013.9      
Aug 19 04:53 Calm 16.09 Cloudy BKN011 OVC014 19 16     79%     1013.9 1013.6      
Aug 19 03:53 SW 11 16.09 Cloudy BKN011 OVC015 19 16     79%     1013.9 1013.4      
Aug 19 02:53 WSW 8 16.09 Mostly Cloudy BKN011 19 16     81%     1013.2 1013      
Aug 19 02:34 SW 8 16.09 Mostly Cloudy BKN011 19 16     81%     1013.2        
Aug 19 01:53 WSW 8 16.09 Mostly Clear FEW012 19 16     81%     1013.2 1012.9      
Aug 19 00:53 SW 8 16.09 Mostly Clear FEW012 19 16     81%     1013.2 1012.7      
Aug 18 23:53 WSW 9 16.09 Mostly Clear FEW012 19 16     81%     1012.9 1012.7      
Aug 18 22:53 WSW 15 16.09 Mostly Clear FEW012 19 16     79%     1012.9 1012.7      
Aug 18 21:53 WSW 15 16.09 Mostly Clear FEW012 19 16     79%     1012.9 1012.5      
Aug 18 20:53 W 18 16.09 Clear CLR 19 16     79%     1012.2 1011.7      
Aug 18 19:53 W 24 16.09 Mostly Clear FEW012 FEW250 20 16     76%     1011.5 1011.4      
Aug 18 18:53 W 26 16.09 Mostly Clear FEW012 FEW250 21 16     73%     1011.5 1011.3      
Aug 18 17:53 W 24 16.09 Partly Cloudy FEW015 FEW200 SCT250 22 16     68%   22 1011.5 1011.3      
Aug 18 16:53 W 24 16.09 Partly Cloudy FEW015 FEW200 SCT250 22 16     66%   22 1011.9 1011.7      
Aug 18 15:53 W 22 16.09 Partly Cloudy FEW015 FEW200 SCT250 21 15     68%     1012.2 1011.9      
Aug 18 14:53 WSW 21 16.09 Partly Cloudy FEW015 FEW200 SCT250 23 16     62%   23 1012.9 1012.6      
Aug 18 13:53 WSW 18 16.09 Partly Cloudy FEW017 SCT230 SCT300 23 16     62%   23 1013.6 1013.2      
Aug 18 12:53 WSW 15 16.09 Partly Cloudy FEW016 FEW027 SCT300 23 16     62%   23 1013.9 1013.5      
Aug 18 11:53 WSW 17 16.09 Mostly Cloudy FEW020 SCT027 BKN300 23 16     64%   23 1014.2 1013.8      
Aug 18 11:40 WSW 15 16.09 Mostly Cloudy FEW020 SCT026 BKN300 23 16     64%   23 1014.2        
Aug 18 10:53 8 16.09 Mostly Cloudy BKN024 BKN300 22 15     64%   22 1014.2 1013.9      
Aug 18 09:53 SE 13 16.09 Cloudy OVC021 22 15     66%   22 1013.9 1013.6      
Aug 18 08:53 S 11 16.09 Cloudy OVC019 21 16     71%     1013.2 1013.2      
Aug 18 07:53 8 16.09 Cloudy OVC018 21 16     73%     1012.9 1012.8      
Aug 18 06:53 E 8 16.09 Cloudy OVC020 21 15     70%     1012.5 1012.1      
Aug 18 05:53 WSW 8 16.09 Cloudy BKN017 OVC021 20 16     76%     1011.9 1011.5      
Aug 18 04:53 E 5 16.09 Cloudy OVC020 21 15     70%     1011.5 1011.3      
Aug 18 03:53 ESE 5 16.09 Cloudy OVC019 21 15     70%     1011.9 1011.5      
Aug 18 02:53 Calm 16.09 Cloudy OVC018 21 15     70%     1012.2 1011.9      
Aug 18 01:53 SSE 9 16.09 Cloudy OVC018 20 15     73%     1012.2 1011.8      
Aug 18 00:53 SE 8 16.09 Cloudy OVC015 20 15     73%     1011.9 1011.7      
Aug 17 23:53 8 16.09 Cloudy OVC015 20 16     76%     1012.2 1011.8      
Aug 17 22:53 W 8 16.09 Mostly Cloudy BKN016 19 15     76%     1012.2 1011.7      
Aug 17 21:53 W 13 16.09 Mostly Cloudy BKN015 19 15     78%     1012.2 1011.7      
Aug 17 20:53 W 17 16.09 Mostly Cloudy BKN011 19 15     78%     1011.5 1011.2      
Aug 17 19:53 WSW 15 16.09 Partly Cloudy SCT011 SCT200 19 15     76%     1010.8 1010.7      
Aug 17 18:53 W 15 16.09 Partly Cloudy SCT013 SCT250 20 15     73%     1010.5 1010.4      
Aug 17 17:53 W 18 16.09 Partly Cloudy SCT012 SCT250 21 16     73%     1010.8 1010.7      
Aug 17 16:53 W 22 16.09 Partly Cloudy FEW013 SCT250 22 16     68%   22 1010.8 1010.7      
Aug 17 15:53 WSW 22 16.09 Partly Cloudy FEW013 SCT300 23 16     64%   23 1011.2 1011.1      
May 15 08:53 SSW 13 12.87 Mostly Cloudy BKN021 17 11     70%     1018 1017.7      
May 14 11:53 WSW 28 12.87 Partly Cloudy FEW027 SCT140 SCT180 18 12     65%     1016.3 1016      
May 14 09:09 9 11.27 Mostly Cloudy SCT018 BKN140 17 12     70%     1015.6        
May 11 17:53 ESE 11 16.09 Mostly Cloudy BKN025 BKN031 17 11     67%     1009.8 1009.6      
Jun 12 02:53 E 9 16.09 Mostly Clear FEW090 FEW220 14 11     81%     1014.9 1014.6      
Jun 10 23:53 SW 9 16.09 Clear   17 14     81%     1011.5 1011.3      
Jun 10 06:53 WSW 9 16.09 Cloudy BKN020 OVC026 17 14     86%     1011.9 1011.6      
Jun 10 05:53 WSW 5 16.09 Mostly Cloudy BKN023 17 14     84%     1011.5 1011.2      
Jun 09 15:53 WSW 22 16.09 Partly Cloudy FEW013 SCT100 21 16     73%     1012.9 1012.6      
Jun 09 12:53 WSW 22 14.48 Mostly Clear FEW017 FEW120 21 13     59%     1014.6 1014.2      
Jun 09 00:53 SSW 5 16.09 Mostly Clear FEW011 16 13     83%     1013.9 1013.7      
Jun 08 16:53 WSW 33 16.09 Clear and Windy   19 14     71%     1014.2 1014.2      
Jun 08 05:53 W 11 6.44 Clear   16 16     97%     1015.6 1015.3 0    
Jun 07 15:53 WSW 21 16.09 Mostly Clear FEW022 20 15     73%     1013.9 1013.7      
Jun 07 12:53 11 11.27 Cloudy OVC016 18 15     81%     1015.2 1015.1      
Jun 07 10:53 WSW 15 9.66 Haze SCT012 OVC014 17 15     87%     1014.9 1014.9     0
Jun 07 09:53 WSW 11 8.05 Fog/Mist BKN013 OVC018 17 15     87%     1014.6 1014.4